Time,TemperatureF,DewpointF,PressureIn,WindDirection,WindDirectionDegrees,WindSpeedMPH,WindSpeedGustMPH,Humidity,HourlyPrecipIn,Conditions,Clouds,dailyrainin,SoftwareType,DateUTC
2013-03-06 00:02:00,19.0,13.0,30.35,NNE,28,0.0,2.0,76,0.00,,,0.00,,2013-03-06 06:02:00,
2013-03-06 00:11:00,19.0,13.0,30.35,NNE,28,0.0,2.0,76,0.00,,,0.00,,2013-03-06 06:11:00,
2013-03-06 00:22:00,19.0,13.0,30.35,NNE,28,0.0,1.0,76,0.00,,,0.00,,2013-03-06 06:22:00,
2013-03-06 00:32:00,18.0,12.0,30.36,NNE,28,0.0,0.0,77,0.00,,,0.00,,2013-03-06 06:32:00,
2013-03-06 00:42:00,18.0,12.0,30.36,NNE,28,0.0,0.0,77,0.00,,,0.00,,2013-03-06 06:42:00,
2013-03-06 00:52:00,18.0,12.0,30.36,NNE,28,0.0,0.0,78,0.00,,,0.00,,2013-03-06 06:52:00,
2013-03-06 01:01:00,18.0,12.0,30.36,NNE,28,0.0,1.0,78,0.00,,,0.00,,2013-03-06 07:01:00,
2013-03-06 01:11:00,18.0,12.0,30.36,NNE,28,0.0,1.0,78,0.00,,,0.00,,2013-03-06 07:11:00,
2013-03-06 01:22:00,18.0,12.0,30.35,NNE,28,0.0,0.0,78,0.00,,,0.00,,2013-03-06 07:22:00,
2013-03-06 01:32:00,18.0,12.0,30.35,NNE,28,0.0,2.0,78,0.00,,,0.00,,2013-03-06 07:32:00,
2013-03-06 01:42:00,18.0,12.0,30.35,NNE,28,0.0,2.0,78,0.00,,,0.00,,2013-03-06 07:42:00,
2013-03-06 01:52:00,18.0,12.0,30.35,NNE,28,0.0,1.0,78,0.00,,,0.00,,2013-03-06 07:52:00,
2013-03-06 02:01:00,17.0,12.0,30.35,NNE,28,0.0,0.0,79,0.00,,,0.00,,2013-03-06 08:01:00,
2013-03-06 02:11:00,17.0,12.0,30.35,NNE,28,0.0,0.0,79,0.00,,,0.00,,2013-03-06 08:11:00,
2013-03-06 02:21:00,17.0,12.0,30.35,NNE,28,1.0,3.0,80,0.00,,,0.00,,2013-03-06 08:21:00,
2013-03-06 02:32:00,18.0,13.0,30.35,NE,39,0.0,2.0,79,0.00,,,0.00,,2013-03-06 08:32:00,
2013-03-06 02:42:00,18.0,13.0,30.35,NE,39,0.0,2.0,79,0.00,,,0.00,,2013-03-06 08:42:00,
2013-03-06 02:52:00,18.0,12.0,30.35,NE,39,0.0,1.0,78,0.00,,,0.00,,2013-03-06 08:52:00,
2013-03-06 03:01:00,17.0,12.0,30.35,NE,39,0.0,1.0,79,0.00,,,0.00,,2013-03-06 09:01:00,
2013-03-06 03:12:00,17.0,12.0,30.35,NE,39,0.0,1.0,79,0.00,,,0.00,,2013-03-06 09:12:00,
2013-03-06 03:21:00,18.0,13.0,30.35,NE,39,0.0,2.0,79,0.00,,,0.00,,2013-03-06 09:21:00,
2013-03-06 03:32:00,18.0,13.0,30.34,NE,39,0.0,3.0,79,0.00,,,0.00,,2013-03-06 09:32:00,
2013-03-06 03:42:00,18.0,13.0,30.34,NE,39,0.0,3.0,79,0.00,,,0.00,,2013-03-06 09:42:00,
2013-03-06 03:51:00,18.0,12.0,30.34,NE,46,0.0,3.0,78,0.00,,,0.00,,2013-03-06 09:51:00,
2013-03-06 04:01:00,17.0,12.0,30.34,NE,46,0.0,3.0,79,0.00,,,0.00,,2013-03-06 10:01:00,
2013-03-06 04:11:00,17.0,12.0,30.34,NE,46,0.0,3.0,79,0.00,,,0.00,,2013-03-06 10:11:00,
2013-03-06 04:21:00,17.0,12.0,30.34,NE,46,0.0,3.0,79,0.00,,,0.00,,2013-03-06 10:21:00,
2013-03-06 04:32:00,17.0,12.0,30.33,NNE,33,1.0,4.0,80,0.00,,,0.00,,2013-03-06 10:32:00,
2013-03-06 04:42:00,17.0,12.0,30.33,NNE,33,1.0,4.0,80,0.00,,,0.00,,2013-03-06 10:42:00,
2013-03-06 04:52:00,18.0,13.0,30.32,NE,46,1.0,3.0,79,0.00,,,0.00,,2013-03-06 10:52:00,
2013-03-06 05:02:00,18.0,13.0,30.32,NE,46,1.0,3.0,79,0.00,,,0.00,,2013-03-06 11:02:00,
2013-03-06 05:11:00,18.0,13.0,30.32,NE,46,1.0,3.0,79,0.00,,,0.00,,2013-03-06 11:11:00,
2013-03-06 05:22:00,16.0,11.0,30.32,NE,51,0.0,2.0,80,0.00,,,0.00,,2013-03-06 11:22:00,
2013-03-06 05:32:00,15.0,10.0,30.32,NE,51,0.0,1.0,81,0.00,,,0.00,,2013-03-06 11:32:00,
2013-03-06 05:42:00,15.0,10.0,30.32,NE,51,0.0,1.0,81,0.00,,,0.00,,2013-03-06 11:42:00,
2013-03-06 05:52:00,15.0,11.0,30.32,NE,51,0.0,0.0,82,0.00,,,0.00,,2013-03-06 11:52:00,
2013-03-06 06:02:00,15.0,11.0,30.32,NE,51,0.0,2.0,83,0.00,,,0.00,,2013-03-06 12:02:00,
2013-03-06 06:11:00,15.0,11.0,30.32,NE,51,0.0,2.0,83,0.00,,,0.00,,2013-03-06 12:11:00,
2013-03-06 06:22:00,16.0,11.0,30.32,ENE,64,0.0,4.0,82,0.00,,,0.00,,2013-03-06 12:22:00,
2013-03-06 06:33:00,16.0,11.0,30.32,ENE,64,0.0,1.0,82,0.00,,,0.00,,2013-03-06 12:33:00,
2013-03-06 06:42:00,16.0,11.0,30.32,ENE,64,0.0,1.0,82,0.00,,,0.00,,2013-03-06 12:42:00,
2013-03-06 06:52:00,15.0,11.0,30.32,ENE,64,0.0,1.0,82,0.00,,,0.00,,2013-03-06 12:52:00,
2013-03-06 07:02:00,15.0,11.0,30.32,ENE,64,1.0,2.0,84,0.00,,,0.00,,2013-03-06 13:02:00,
2013-03-06 07:12:00,15.0,11.0,30.32,ENE,64,1.0,2.0,84,0.00,,,0.00,,2013-03-06 13:12:00,
2013-03-06 07:22:00,16.0,12.0,30.32,ENE,64,0.0,3.0,83,0.00,,,0.00,,2013-03-06 13:22:00,
2013-03-06 07:32:00,15.0,10.0,30.32,ENE,64,0.0,3.0,81,0.00,,,0.00,,2013-03-06 13:32:00,
2013-03-06 07:42:00,15.0,10.0,30.32,ENE,64,0.0,3.0,81,0.00,,,0.00,,2013-03-06 13:42:00,
2013-03-06 07:52:00,14.0,10.0,30.32,ENE,64,0.0,2.0,82,0.00,,,0.00,,2013-03-06 13:52:00,
2013-03-06 08:01:00,14.0,10.0,30.33,ENE,64,0.0,1.0,84,0.00,,,0.00,,2013-03-06 14:01:00,
2013-03-06 08:11:00,14.0,10.0,30.33,ENE,64,0.0,1.0,84,0.00,,,0.00,,2013-03-06 14:11:00,
2013-03-06 08:22:00,16.0,12.0,30.33,ENE,63,3.0,7.0,83,0.00,,,0.00,,2013-03-06 14:22:00,
2013-03-06 08:32:00,17.0,12.0,30.33,ENE,61,1.0,4.0,82,0.00,,,0.00,,2013-03-06 14:32:00,
2013-03-06 08:42:00,17.0,12.0,30.33,ENE,61,1.0,4.0,82,0.00,,,0.00,,2013-03-06 14:42:00,
2013-03-06 08:52:00,19.0,14.0,30.33,NE,42,2.0,8.0,81,0.00,,,0.00,,2013-03-06 14:52:00,
2013-03-06 09:02:00,21.0,15.0,30.33,ENE,74,2.0,7.0,78,0.00,,,0.00,,2013-03-06 15:02:00,
2013-03-06 09:11:00,21.0,15.0,30.33,ENE,74,2.0,7.0,78,0.00,,,0.00,,2013-03-06 15:11:00,
2013-03-06 09:21:00,23.0,17.0,30.33,NE,42,2.0,5.0,77,0.00,,,0.00,,2013-03-06 15:21:00,
2013-03-06 09:32:00,25.0,18.0,30.32,NNE,18,2.0,7.0,73,0.00,,,0.00,,2013-03-06 15:32:00,
2013-03-06 09:42:00,25.0,18.0,30.32,NNE,18,2.0,7.0,73,0.00,,,0.00,,2013-03-06 15:42:00,
2013-03-06 09:52:00,26.0,18.0,30.32,NE,47,2.0,8.0,71,0.00,,,0.00,,2013-03-06 15:52:00,
2013-03-06 10:02:00,27.0,18.0,30.32,North,11,2.0,7.0,69,0.00,,,0.00,,2013-03-06 16:02:00,
2013-03-06 10:11:00,27.0,18.0,30.32,North,11,2.0,7.0,69,0.00,,,0.00,,2013-03-06 16:11:00,
2013-03-06 10:21:00,28.0,18.0,30.32,NE,40,3.0,10.0,67,0.00,,,0.00,,2013-03-06 16:21:00,
2013-03-06 10:32:00,29.0,18.0,30.31,NNW,334,3.0,8.0,63,0.00,,,0.00,,2013-03-06 16:32:00,
2013-03-06 10:42:00,29.0,18.0,30.31,NNW,334,3.0,8.0,63,0.00,,,0.00,,2013-03-06 16:42:00,
2013-03-06 10:52:00,30.0,19.0,30.30,NNE,30,3.0,9.0,62,0.00,,,0.00,,2013-03-06 16:52:00,
2013-03-06 11:01:00,31.0,18.0,30.29,NE,54,4.0,10.0,59,0.00,,,0.00,,2013-03-06 17:01:00,
2013-03-06 11:11:00,31.0,18.0,30.29,NE,54,4.0,10.0,59,0.00,,,0.00,,2013-03-06 17:11:00,
2013-03-06 11:21:00,31.0,18.0,30.28,NE,38,4.0,9.0,57,0.00,,,0.00,,2013-03-06 17:21:00,
2013-03-06 11:32:00,32.0,18.0,30.27,SSE,148,3.0,10.0,56,0.00,,,0.00,,2013-03-06 17:32:00,
2013-03-06 11:42:00,32.0,18.0,30.27,SSE,148,3.0,10.0,56,0.00,,,0.00,,2013-03-06 17:42:00,
2013-03-06 11:52:00,33.0,18.0,30.26,NE,53,4.0,11.0,54,0.00,,,0.00,,2013-03-06 17:52:00,
2013-03-06 12:02:00,34.0,19.0,30.25,NNE,28,3.0,12.0,53,0.00,,,0.00,,2013-03-06 18:02:00,
2013-03-06 12:28:00,35.0,19.0,30.24,NE,37,4.0,10.0,51,0.00,,,0.00,,2013-03-06 18:28:00,
2013-03-06 12:42:00,35.0,19.0,30.23,NE,45,3.0,13.0,51,0.00,,,0.00,,2013-03-06 18:42:00,
2013-03-06 12:52:00,36.0,20.0,30.22,NE,44,4.0,13.0,51,0.00,,,0.00,,2013-03-06 18:52:00,
2013-03-06 13:02:00,35.0,19.0,30.21,NE,36,6.0,13.0,52,0.00,,,0.00,,2013-03-06 19:02:00,
2013-03-06 13:11:00,35.0,19.0,30.21,NE,36,6.0,13.0,52,0.00,,,0.00,,2013-03-06 19:11:00,
2013-03-06 13:22:00,35.0,20.0,30.20,NNE,17,6.0,12.0,53,0.00,,,0.00,,2013-03-06 19:22:00,
2013-03-06 13:32:00,36.0,21.0,30.19,ENE,57,7.0,14.0,54,0.00,,,0.00,,2013-03-06 19:32:00,
2013-03-06 13:43:00,36.0,21.0,30.19,ENE,57,7.0,14.0,54,0.00,,,0.00,,2013-03-06 19:43:00,
2013-03-06 13:52:00,38.0,20.0,30.18,NNW,327,7.0,14.0,48,0.00,,,0.00,,2013-03-06 19:52:00,
2013-03-06 14:02:00,39.0,21.0,30.17,NE,40,6.0,15.0,49,0.00,,,0.00,,2013-03-06 20:02:00,
2013-03-06 14:12:00,39.0,21.0,30.17,NE,40,6.0,15.0,49,0.00,,,0.00,,2013-03-06 20:12:00,
2013-03-06 14:22:00,38.0,21.0,30.16,NNE,32,5.0,14.0,50,0.00,,,0.00,,2013-03-06 20:22:00,
2013-03-06 14:32:00,38.0,21.0,30.15,SSE,157,4.0,14.0,50,0.00,,,0.00,,2013-03-06 20:32:00,
2013-03-06 14:42:00,38.0,21.0,30.15,SSE,157,4.0,14.0,50,0.00,,,0.00,,2013-03-06 20:42:00,
2013-03-06 14:52:00,38.0,22.0,30.14,ESE,111,4.0,12.0,52,0.00,,,0.00,,2013-03-06 20:52:00,
2013-03-06 15:02:00,38.0,22.0,30.14,NE,55,6.0,12.0,52,0.00,,,0.00,,2013-03-06 21:02:00,
2013-03-06 15:11:00,38.0,22.0,30.14,NE,55,6.0,12.0,52,0.00,,,0.00,,2013-03-06 21:11:00,
2013-03-06 15:22:00,38.0,22.0,30.14,SSE,153,3.0,11.0,53,0.00,,,0.00,,2013-03-06 21:22:00,
2013-03-06 15:32:00,39.0,23.0,30.13,NE,36,4.0,12.0,53,0.00,,,0.00,,2013-03-06 21:32:00,
2013-03-06 15:42:00,39.0,23.0,30.13,NE,36,4.0,12.0,53,0.00,,,0.00,,2013-03-06 21:42:00,
2013-03-06 15:51:00,39.0,23.0,30.13,North,360,3.0,11.0,52,0.00,,,0.00,,2013-03-06 21:51:00,
2013-03-06 16:01:00,39.0,23.0,30.13,SE,138,5.0,15.0,52,0.00,,,0.00,,2013-03-06 22:01:00,
2013-03-06 16:11:00,39.0,23.0,30.13,SE,138,5.0,15.0,52,0.00,,,0.00,,2013-03-06 22:11:00,
2013-03-06 16:22:00,39.0,23.0,30.12,ESE,118,5.0,12.0,53,0.00,,,0.00,,2013-03-06 22:22:00,
2013-03-06 16:32:00,39.0,23.0,30.11,NNE,32,4.0,10.0,53,0.00,,,0.00,,2013-03-06 22:32:00,
2013-03-06 16:42:00,39.0,23.0,30.11,NNE,32,4.0,10.0,53,0.00,,,0.00,,2013-03-06 22:42:00,
2013-03-06 16:51:00,39.0,24.0,30.10,North,9,3.0,13.0,54,0.00,,,0.00,,2013-03-06 22:51:00,
2013-03-06 17:01:00,39.0,24.0,30.09,North,360,4.0,10.0,54,0.00,,,0.00,,2013-03-06 23:01:00,
2013-03-06 17:11:00,39.0,24.0,30.09,North,360,4.0,10.0,54,0.00,,,0.00,,2013-03-06 23:11:00,
2013-03-06 17:21:00,39.0,24.0,30.08,NE,51,4.0,15.0,55,0.00,,,0.00,,2013-03-06 23:21:00,
2013-03-06 17:32:00,39.0,24.0,30.08,NE,42,4.0,8.0,55,0.00,,,0.00,,2013-03-06 23:32:00,
2013-03-06 17:42:00,39.0,24.0,30.08,NE,42,4.0,8.0,55,0.00,,,0.00,,2013-03-06 23:42:00,
2013-03-06 17:52:00,38.0,24.0,30.07,NNE,32,4.0,10.0,57,0.00,,,0.00,,2013-03-06 23:52:00,
2013-03-06 18:01:00,37.0,23.0,30.08,NE,48,4.0,10.0,57,0.00,,,0.00,,2013-03-07 00:01:00,
2013-03-06 18:11:00,37.0,23.0,30.08,NE,48,4.0,10.0,57,0.00,,,0.00,,2013-03-07 00:11:00,
2013-03-06 18:21:00,37.0,24.0,30.08,NE,50,3.0,8.0,58,0.00,,,0.00,,2013-03-07 00:21:00,
2013-03-06 18:32:00,36.0,23.0,30.08,NE,52,2.0,9.0,60,0.00,,,0.00,,2013-03-07 00:32:00,
2013-03-06 18:42:00,36.0,23.0,30.08,NE,52,2.0,9.0,60,0.00,,,0.00,,2013-03-07 00:42:00,
2013-03-06 18:52:00,35.0,23.0,30.06,ENE,61,3.0,9.0,62,0.00,,,0.00,,2013-03-07 00:52:00,
2013-03-06 19:01:00,34.0,23.0,30.06,NNE,28,4.0,9.0,64,0.00,,,0.00,,2013-03-07 01:01:00,
2013-03-06 19:11:00,34.0,23.0,30.06,NNE,28,4.0,9.0,64,0.00,,,0.00,,2013-03-07 01:11:00,
2013-03-06 19:21:00,33.0,23.0,30.04,NNE,25,3.0,9.0,66,0.00,,,0.00,,2013-03-07 01:21:00,
2013-03-06 19:32:00,33.0,23.0,30.05,NE,41,5.0,9.0,67,0.00,,,0.00,,2013-03-07 01:32:00,
2013-03-06 19:42:00,33.0,23.0,30.05,NE,41,5.0,9.0,67,0.00,,,0.00,,2013-03-07 01:42:00,
2013-03-06 19:51:00,32.0,23.0,30.05,ENE,66,5.0,10.0,69,0.00,,,0.00,,2013-03-07 01:51:00,
2013-03-06 20:01:00,32.0,23.0,30.06,ENE,58,3.0,8.0,70,0.00,,,0.00,,2013-03-07 02:01:00,
2013-03-06 20:11:00,32.0,23.0,30.06,ENE,58,3.0,8.0,70,0.00,,,0.00,,2013-03-07 02:11:00,
2013-03-06 20:21:00,32.0,24.0,30.06,ENE,63,1.0,5.0,71,0.00,,,0.00,,2013-03-07 02:21:00,
2013-03-06 20:32:00,31.0,23.0,30.06,East,83,4.0,7.0,71,0.00,,,0.00,,2013-03-07 02:32:00,
2013-03-06 20:41:00,31.0,23.0,30.06,East,83,4.0,7.0,71,0.00,,,0.00,,2013-03-07 02:41:00,
2013-03-06 20:51:00,31.0,23.0,30.06,East,83,4.0,7.0,71,0.00,,,0.00,,2013-03-07 02:51:00,
2013-03-06 21:02:00,31.0,23.0,30.06,ENE,66,3.0,8.0,72,0.00,,,0.00,,2013-03-07 03:02:00,
2013-03-06 21:11:00,31.0,23.0,30.06,ENE,66,3.0,8.0,72,0.00,,,0.00,,2013-03-07 03:11:00,
2013-03-06 21:21:00,31.0,23.0,30.04,ENE,61,4.0,7.0,73,0.00,,,0.00,,2013-03-07 03:21:00,
2013-03-06 21:32:00,31.0,23.0,30.07,ENE,63,2.0,7.0,73,0.00,,,0.00,,2013-03-07 03:32:00,
2013-03-06 21:42:00,31.0,23.0,30.07,ENE,63,2.0,7.0,73,0.00,,,0.00,,2013-03-07 03:42:00,
2013-03-06 21:52:00,31.0,24.0,30.06,NE,56,1.0,6.0,74,0.00,,,0.00,,2013-03-07 03:52:00,
2013-03-06 22:01:00,31.0,23.0,30.06,North,5,2.0,7.0,73,0.00,,,0.00,,2013-03-07 04:01:00,
2013-03-06 22:11:00,31.0,23.0,30.06,North,5,2.0,7.0,73,0.00,,,0.00,,2013-03-07 04:11:00,
2013-03-06 22:21:00,31.0,23.0,30.05,ENE,57,2.0,6.0,73,0.00,,,0.00,,2013-03-07 04:21:00,
2013-03-06 22:32:00,31.0,23.0,30.05,NE,51,2.0,7.0,73,0.00,,,0.00,,2013-03-07 04:32:00,
2013-03-06 22:42:00,31.0,23.0,30.05,NE,51,2.0,7.0,73,0.00,,,0.00,,2013-03-07 04:42:00,
2013-03-06 22:51:00,31.0,24.0,30.04,NE,48,4.0,8.0,74,0.00,,,0.00,,2013-03-07 04:51:00,
2013-03-06 23:02:00,31.0,24.0,30.03,NE,37,3.0,10.0,74,0.00,,,0.00,,2013-03-07 05:02:00,
2013-03-06 23:12:00,31.0,24.0,30.03,NE,37,3.0,10.0,74,0.00,,,0.00,,2013-03-07 05:12:00,
2013-03-06 23:22:00,30.0,23.0,30.03,NE,43,3.0,7.0,74,0.00,,,0.00,,2013-03-07 05:22:00,
2013-03-06 23:32:00,30.0,23.0,30.03,NE,51,3.0,7.0,75,0.00,,,0.00,,2013-03-07 05:32:00,
2013-03-06 23:42:00,30.0,23.0,30.03,NE,51,3.0,7.0,75,0.00,,,0.00,,2013-03-07 05:42:00,
2013-03-06 23:52:00,30.0,23.0,30.03,NE,38,1.0,7.0,76,0.00,,,0.00,,2013-03-07 05:52:00,